G7NPW-1 Weather Reports


time (UTC)temp
C
wind
direction
speed
KPH
gust
KPH
rain 1hr
cm
rain 24hr
cm
rain mn
cm
humidity
%
barometer
mb
20260904210504 15 230 19.3 24.1 0.00 0.00 0.00 76 1015.9
20260904210004 15 230 19.3 24.1 0.00 0.00 0.00 76 1015.9
20260904205504 16 240 24.1 24.1 0.00 0.00 0.00 72 1015.9
20260904204004 16 240 24.1 24.1 0.00 0.00 0.00 72 1015.9
20260904201504 16 240 24.1 24.1 0.00 0.00 0.00 72 1015.9
20260904200504 16 240 24.1 29.0 0.00 0.00 0.00 72 1015.9
20260904200004 16 240 24.1 29.0 0.00 0.00 0.00 72 1015.9
20260904195004 17 250 29.0 29.0 0.00 0.00 0.00 63 1014.9
20260904193504 17 250 29.0 29.0 0.00 0.00 0.00 63 1014.9
20260904193004 17 250 29.0 29.0 0.00 0.00 0.00 63 1014.9
20260904192503 17 250 29.0 29.0 0.00 0.00 0.00 63 1014.9
20260904184504 17 250 25.7 25.7 0.00 0.00 0.00 59 1013.9
20260904184004 17 250 25.7 25.7 0.00 0.00 0.00 59 1013.9
20260904183504 17 250 25.7 25.7 0.00 0.00 0.00 59 1013.9
20260904183004 17 250 25.7 25.7 0.00 0.00 0.00 59 1013.9
20260904181504 17 250 25.7 25.7 0.00 0.00 0.00 59 1013.9
20260904180004 17 250 25.7 32.2 0.00 0.00 0.00 59 1013.9
20260904175504 17 250 32.2 32.2 0.00 0.00 0.00 59 1012.9
20260904174505 17 250 32.2 32.2 0.00 0.00 0.00 59 1012.9
20260904174004 17 250 32.2 32.2 0.00 0.00 0.00 59 1012.9
20260904173004 17 250 32.2 32.2 0.00 0.00 0.00 59 1012.9
20260904170004 17 250 32.2 59.5 0.00 0.00 0.00 59 1012.9
20260904164504 17 270 33.8 59.5 0.00 0.00 0.00 59 1012.9
20260904164004 17 270 33.8 59.5 0.00 0.00 0.00 59 1012.9
20260904163504 17 270 33.8 59.5 0.00 0.00 0.00 59 1012.9
20260904163005 17 270 33.8 59.5 0.00 0.00 0.00 59 1012.9
20260904162504 17 270 33.8 59.5 0.00 0.00 0.00 59 1012.9
20260904155504 18 260 41.8 41.8 0.00 0.00 0.00 52 1011.9
20260904153004 18 260 41.8 41.8 0.00 0.00 0.00 52 1011.9
20260904151505 18 260 41.8 41.8 0.00 0.00 0.00 52 1011.9
20260904150004 18 260 41.8 69.2 0.00 0.00 0.00 52 1011.9
20260904145004 20 260 40.2 69.2 0.00 0.00 0.00 52 1011.9
20260904144504 20 260 40.2 69.2 0.00 0.00 0.00 52 1011.9
20260904144004 20 260 40.2 69.2 0.00 0.00 0.00 52 1011.9
20260904143504 20 260 40.2 69.2 0.00 0.00 0.00 52 1011.9
20260904142504 20 260 40.2 69.2 0.00 0.00 0.00 52 1011.9
20260904142005 20 260 40.2 69.2 0.00 0.00 0.00 52 1011.9
20260904141505 20 260 40.2 69.2 0.00 0.00 0.00 52 1011.9
20260904141004 20 260 40.2 69.2 0.00 0.00 0.00 52 1011.9
20260904140504 20 260 40.2 69.2 0.00 0.00 0.00 52 1011.9
20260904135504 20 270 40.2 69.2 0.00 0.00 0.00 52 1010.8
20260904133004 20 270 40.2 69.2 0.00 0.00 0.00 52 1010.8
20260904132004 20 270 40.2 69.2 0.00 0.00 0.00 52 1010.8
20260904130004 20 270 40.2 74.0 0.00 0.00 0.00 52 1010.8
20260904125504 18 260 46.7 74.0 0.00 0.00 0.00 55 1010.8
20260904125004 18 260 46.7 74.0 0.00 0.00 0.00 55 1010.8
20260904124503 18 260 46.7 74.0 0.00 0.00 0.00 55 1010.8
20260904122004 18 260 46.7 74.0 0.00 0.00 0.00 55 1010.8
20260904121504 18 260 46.7 74.0 0.00 0.00 0.00 55 1010.8
20260904121003 18 260 46.7 74.0 0.00 0.00 0.00 55 1010.8
20260904120504 18 260 46.7 74.0 0.00 0.00 0.00 55 1010.8
20260904115503 17 270 38.6 38.6 0.00 0.00 0.00 63 1010.8
20260904114005 17 270 38.6 38.6 0.00 0.00 0.00 63 1010.8
20260904113504 17 270 38.6 38.6 0.00 0.00 0.00 63 1010.8
20260904113004 17 270 38.6 38.6 0.00 0.00 0.00 63 1010.8
20260904110504 17 270 38.6 38.6 0.00 0.00 0.00 63 1010.8
20260904104504 17 260 35.4 35.4 0.00 0.00 0.00 72 1010.2
20260904102504 17 260 35.4 35.4 0.00 0.00 0.00 72 1010.2
20260904101504 17 260 35.4 35.4 0.00 0.00 0.00 72 1010.2
20260904100004 17 260 35.4 35.4 0.00 0.00 0.00 72 1010.2
20260904095504 17 250 29.0 29.0 0.00 0.00 0.00 88 1009.1
20260904095004 17 250 29.0 29.0 0.00 0.00 0.00 88 1009.1
20260904094004 17 250 29.0 29.0 0.00 0.00 0.00 88 1009.1
20260904093004 17 250 29.0 29.0 0.00 0.00 0.00 88 1009.1
20260904092504 17 250 29.0 29.0 0.00 0.00 0.00 88 1009.1
20260904091504 17 250 29.0 29.0 0.00 0.00 0.00 88 1009.1
20260904085004 16 260 27.4 27.4 0.00 0.00 0.00 93 1008.1
20260904083503 16 260 27.4 27.4 0.00 0.00 0.00 93 1008.1
20260904082004 16 260 27.4 27.4 0.00 0.00 0.00 93 1008.1
20260904081005 16 260 27.4 27.4 0.00 0.00 0.00 93 1008.1
20260904080504 16 260 27.4 29.0 0.00 0.00 0.00 93 1008.1
20260904080004 16 260 27.4 29.0 0.00 0.00 0.00 93 1008.1
20260904075503 16 260 29.0 29.0 0.00 0.00 0.00 93 1008.1
20260904070504 16 260 29.0 29.0 0.00 0.00 0.00 93 1008.1
20260904065505 18 220 20.9 20.9 0.00 0.00 0.00 63 1011.9
20260904065004 18 220 20.9 20.9 0.00 0.00 0.00 63 1011.9
20260904064504 18 220 20.9 20.9 0.00 0.00 0.00 63 1011.9
20260904061004 18 220 20.9 20.9 0.00 0.00 0.00 63 1011.9